• In Kazakhstan
  • List of Countries
  • For 7 days
  • Water Temperature
  • Weather Map
  • News
  • Weather Widgets
  • user-avatar
    Login

    Hourly Weather Andora

    Today, 20 August, Tuesday

    Time Temperature Precipitation Wind Pressure Humidity
    00:00 +13°C° 2 mm 1 mps 627 mmHg 96%
    01:00 +13°C° 0.7 mm 1 mps 627 mmHg 96%
    02:00 +13°C° 0.7 mm 1 mps 627 mmHg 97%
    03:00 +13°C° 0.7 mm 1 mps 627 mmHg 97%
    04:00 +13°C° 2.4 mm 1 mps 627 mmHg 97%
    05:00 +12°C° 2.4 mm 1 mps 627 mmHg 97%
    06:00 +12°C° 2.4 mm 1 mps 627 mmHg 97%
    07:00 +12°C° 3.2 mm 1 mps 627 mmHg 96%
    08:00 +11°C° 3.2 mm 1 mps 627 mmHg 96%
    09:00 +10°C° 3.2 mm 2 mps 628 mmHg 95%
    10:00 +11°C° 2.1 mm 1 mps 628 mmHg 93%
    11:00 +11°C° 2.1 mm 1 mps 628 mmHg 92%
    12:00 +11°C° 2.1 mm 1 mps 628 mmHg 90%
    13:00 +13°C° 0.1 mm 1 mps 629 mmHg 82%
    14:00 +15°C° 0.1 mm 1 mps 630 mmHg 75%
    15:00 +18°C° 0.1 mm 1 mps 630 mmHg 67%
    16:00 +16°C° 0 mm 1 mps 630 mmHg 71%
    17:00 +15°C° 0 mm 1 mps 629 mmHg 75%
    18:00 +13°C° 0 mm 1 mps 629 mmHg 79%
    19:00 +12°C° 0 mm 1 mps 629 mmHg 83%
    20:00 +11°C° 0 mm 1 mps 629 mmHg 86%
    21:00 +10°C° 0 mm 1 mps 628 mmHg 89%
    22:00 +9°C° 0 mm 1 mps 628 mmHg 88%
    23:00 +9°C° 0 mm 1 mps 628 mmHg 87%

    Tomorrow, 21 August, Wednesday

    Time Temperature Precipitation Wind Pressure Humidity
    00:00 +9°C° 0 mm 1 mps 628 mmHg 85%
    01:00 +9°C° 0 mm 1 mps 628 mmHg 84%
    02:00 +9°C° 0 mm 1 mps 627 mmHg 82%
    03:00 +9°C° 0 mm 1 mps 627 mmHg 80%
    04:00 +9°C° 0 mm 1 mps 627 mmHg 77%
    05:00 +9°C° 0 mm 1 mps 627 mmHg 75%
    06:00 +10°C° 0 mm 1 mps 627 mmHg 72%
    07:00 +12°C° 0 mm 1 mps 628 mmHg 62%
    08:00 +15°C° 0 mm 1 mps 629 mmHg 52%
    09:00 +16°C° 0 mm 0 mps 630 mmHg 43%
    10:00 +19°C° 0 mm 1 mps 630 mmHg 40%
    11:00 +21°C° 0 mm 1 mps 631 mmHg 37%
    12:00 +22°C° 0 mm 1 mps 631 mmHg 35%
    13:00 +22°C° 0 mm 1 mps 630 mmHg 36%
    14:00 +22°C° 0 mm 1 mps 630 mmHg 37%
    15:00 +22°C° 0 mm 1 mps 630 mmHg 38%
    16:00 +20°C° 0 mm 1 mps 629 mmHg 47%
    17:00 +18°C° 0 mm 1 mps 629 mmHg 56%
    18:00 +16°C° 0 mm 1 mps 628 mmHg 65%
    19:00 +14°C° 0 mm 1 mps 628 mmHg 69%
    20:00 +13°C° 0 mm 1 mps 628 mmHg 72%
    21:00 +12°C° 0 mm 1 mps 628 mmHg 76%
    22:00 +11°C° 0 mm 1 mps 628 mmHg 74%
    23:00 +11°C° 0 mm 1 mps 628 mmHg 71%

    Day after tomorrow, 22 August, Thursday

    Time Temperature Precipitation Wind Pressure Humidity
    00:00 +11°C° 0 mm 1 mps 627 mmHg 69%
    01:00 +11°C° 0 mm 1 mps 627 mmHg 64%
    02:00 +10°C° 0 mm 1 mps 627 mmHg 59%
    03:00 +10°C° 0 mm 1 mps 627 mmHg 54%
    04:00 +9°C° 0 mm 2 mps 627 mmHg 52%
    05:00 +9°C° 0 mm 2 mps 627 mmHg 50%
    06:00 +9°C° 0 mm 2 mps 627 mmHg 49%
    07:00 +13°C° 0 mm 2 mps 629 mmHg 42%
    08:00 +16°C° 0 mm 1 mps 630 mmHg 36%
    09:00 +20°C° 0 mm 1 mps 631 mmHg 29%
    10:00 +21°C° 0 mm 1 mps 631 mmHg 27%
    11:00 +22°C° 0 mm 1 mps 632 mmHg 26%
    12:00 +24°C° 0 mm 1 mps 632 mmHg 24%
    13:00 +23°C° 0 mm 1 mps 632 mmHg 26%
    14:00 +23°C° 0 mm 1 mps 631 mmHg 27%
    15:00 +23°C° 0 mm 1 mps 631 mmHg 29%
    16:00 +21°C° 0 mm 1 mps 630 mmHg 39%
    17:00 +20°C° 0 mm 1 mps 630 mmHg 50%
    18:00 +18°C° 0 mm 1 mps 629 mmHg 60%
    19:00 +15°C° 0 mm 1 mps 629 mmHg 64%
    20:00 +14°C° 0 mm 1 mps 628 mmHg 68%
    21:00 +12°C° 0 mm 1 mps 628 mmHg 72%
    22:00 +12°C° 0 mm 1 mps 628 mmHg 72%
    23:00 +12°C° 0 mm 1 mps 628 mmHg 73%

    23 August, Friday

    Time Temperature Precipitation Wind Pressure Humidity
    00:00 +12°C° 0 mm 1 mps 628 mmHg 74%
    01:00 +11°C° 0 mm 1 mps 627 mmHg 77%
    02:00 +11°C° 0 mm 1 mps 627 mmHg 80%
    03:00 +11°C° 0 mm 1 mps 627 mmHg 82%
    04:00 +12°C° 0 mm 1 mps 627 mmHg 81%
    05:00 +12°C° 0 mm 1 mps 627 mmHg 80%
    06:00 +12°C° 0 mm 1 mps 627 mmHg 79%
    07:00 +15°C° 0 mm 1 mps 629 mmHg 69%
    08:00 +19°C° 0 mm 1 mps 630 mmHg 58%
    09:00 +21°C° 0 mm 1 mps 631 mmHg 47%
    10:00 +22°C° 0 mm 1 mps 631 mmHg 43%
    11:00 +23°C° 0 mm 2 mps 631 mmHg 39%
    12:00 +24°C° 0 mm 2 mps 631 mmHg 35%
    13:00 +24°C° 0 mm 2 mps 631 mmHg 35%
    14:00 +24°C° 0 mm 2 mps 630 mmHg 35%
    15:00 +24°C° 0 mm 2 mps 630 mmHg 36%
    16:00 +21°C° 0 mm 2 mps 629 mmHg 43%
    17:00 +21°C° 0 mm 1 mps 629 mmHg 51%
    18:00 +19°C° 0 mm 1 mps 628 mmHg 58%
    19:00 +18°C° 0 mm 1 mps 628 mmHg 62%
    20:00 +15°C° 0 mm 1 mps 627 mmHg 65%
    21:00 +14°C° 0 mm 1 mps 627 mmHg 68%
    22:00 +14°C° 0 mm 1 mps 627 mmHg 68%
    23:00 +13°C° 0 mm 1 mps 627 mmHg 69%

    24 August, Saturday

    Time Temperature Precipitation Wind Pressure Humidity
    00:00 +13°C° 0 mm 1 mps 627 mmHg 69%
    01:00 +13°C° 0 mm 1 mps 627 mmHg 68%
    02:00 +13°C° 0 mm 1 mps 626 mmHg 67%
    03:00 +13°C° 0 mm 1 mps 626 mmHg 66%
    04:00 +13°C° 0 mm 1 mps 626 mmHg 65%
    05:00 +13°C° 0 mm 1 mps 627 mmHg 65%
    06:00 +14°C° 0 mm 1 mps 627 mmHg 64%
    07:00 +18°C° 0 mm 1 mps 628 mmHg 55%
    08:00 +21°C° 0 mm 1 mps 629 mmHg 47%
    09:00 +22°C° 0 mm 0 mps 631 mmHg 38%
    10:00 +24°C° 0 mm 1 mps 631 mmHg 37%
    11:00 +25°C° 0 mm 1 mps 630 mmHg 35%
    12:00 +25°C° 0 mm 1 mps 630 mmHg 33%
    13:00 +24°C° 0 mm 1 mps 630 mmHg 39%
    14:00 +23°C° 0 mm 1 mps 629 mmHg 45%
    15:00 +22°C° 0 mm 1 mps 629 mmHg 51%
    16:00 +21°C° 0 mm 1 mps 628 mmHg 55%
    17:00 +20°C° 0 mm 1 mps 628 mmHg 59%
    18:00 +19°C° 0 mm 1 mps 627 mmHg 63%
    19:00 +18°C° 0 mm 1 mps 627 mmHg 64%
    20:00 +16°C° 0 mm 1 mps 627 mmHg 66%
    21:00 +15°C° 0 mm 1 mps 627 mmHg 67%
    22:00 +15°C° 0 mm 1 mps 627 mmHg 68%
    23:00 +14°C° 0 mm 1 mps 627 mmHg 69%

    25 August, Sunday

    Time Temperature Precipitation Wind Pressure Humidity
    00:00 +14°C° 0 mm 1 mps 626 mmHg 71%
    01:00 +14°C° 0 mm 1 mps 626 mmHg 70%
    02:00 +14°C° 0 mm 1 mps 626 mmHg 68%
    03:00 +13°C° 0 mm 1 mps 626 mmHg 67%
    04:00 +14°C° 0 mm 1 mps 626 mmHg 66%
    05:00 +14°C° 0 mm 1 mps 626 mmHg 65%
    06:00 +14°C° 0 mm 1 mps 626 mmHg 63%
    07:00 +18°C° 0 mm 1 mps 627 mmHg 55%
    08:00 +21°C° 0 mm 1 mps 629 mmHg 47%
    09:00 +24°C° 0 mm 1 mps 630 mmHg 40%
    10:00 +24°C° 0 mm 1 mps 630 mmHg 39%
    11:00 +24°C° 0 mm 1 mps 629 mmHg 39%
    12:00 +24°C° 0 mm 1 mps 629 mmHg 39%
    13:00 +23°C° 0.2 mm 1 mps 629 mmHg 46%
    14:00 +22°C° 0.2 mm 1 mps 628 mmHg 54%
    15:00 +21°C° 0.2 mm 1 mps 627 mmHg 61%
    16:00 +20°C° 0.6 mm 1 mps 627 mmHg 66%
    17:00 +19°C° 0.6 mm 1 mps 627 mmHg 71%
    18:00 +16°C° 0.6 mm 1 mps 626 mmHg 77%
    19:00 +16°C° 0.2 mm 1 mps 626 mmHg 78%
    20:00 +15°C° 0.2 mm 1 mps 627 mmHg 80%
    21:00 +14°C° 0.2 mm 1 mps 627 mmHg 82%
    22:00 +14°C° 0 mm 1 mps 627 mmHg 81%
    23:00 +14°C° 0 mm 1 mps 627 mmHg 80%
    Show more